Time,TemperatureF,DewpointF,PressureIn,WindDirection,WindDirectionDegrees,WindSpeedMPH,WindSpeedGustMPH,Humidity,HourlyPrecipIn,Conditions,Clouds,dailyrainin,SoftwareType,DateUTC
2013-02-26 00:04:00,27.6,26.0,30.12,WSW,243,0.0,-999.0,95,-99.99,,,0.00,weatherlink.com 1.10,2013-02-26 05:04:00,
2013-02-26 00:19:00,27.8,27.0,30.13,WSW,243,0.0,-999.0,95,-99.99,,,0.00,weatherlink.com 1.10,2013-02-26 05:19:00,
2013-02-26 00:34:00,27.3,26.0,30.13,WSW,243,0.0,-999.0,95,-99.99,,,0.00,weatherlink.com 1.10,2013-02-26 05:34:00,
2013-02-26 00:49:00,27.2,26.0,30.13,WSW,243,0.0,-999.0,95,-99.99,,,0.00,weatherlink.com 1.10,2013-02-26 05:49:00,
2013-02-26 01:04:00,26.9,26.0,30.14,WSW,243,0.0,-999.0,95,-99.99,,,0.00,weatherlink.com 1.10,2013-02-26 06:04:00,
2013-02-26 01:19:00,26.9,26.0,30.14,WSW,243,0.0,-999.0,95,-99.99,,,0.00,weatherlink.com 1.10,2013-02-26 06:19:00,
2013-02-26 01:34:00,28.0,27.0,30.14,WSW,243,0.0,-999.0,96,-99.99,,,0.00,weatherlink.com 1.10,2013-02-26 06:34:00,
2013-02-26 01:49:00,29.0,28.0,30.14,WSW,243,0.0,-999.0,96,-99.99,,,0.00,weatherlink.com 1.10,2013-02-26 06:49:00,
2013-02-26 02:04:00,29.4,28.0,30.13,WSW,243,0.0,-999.0,96,-99.99,,,0.00,weatherlink.com 1.10,2013-02-26 07:04:00,
2013-02-26 02:19:00,29.7,29.0,30.13,WSW,243,0.0,-999.0,96,-99.99,,,0.00,weatherlink.com 1.10,2013-02-26 07:19:00,
2013-02-26 02:34:00,29.6,28.0,30.13,WSW,243,0.0,-999.0,95,-99.99,,,0.00,weatherlink.com 1.10,2013-02-26 07:34:00,
2013-02-26 02:49:00,29.5,28.0,30.12,WSW,243,0.0,-999.0,95,-99.99,,,0.00,weatherlink.com 1.10,2013-02-26 07:49:00,
2013-02-26 03:04:00,29.3,28.0,30.13,WSW,243,0.0,-999.0,95,-99.99,,,0.00,weatherlink.com 1.10,2013-02-26 08:04:00,
2013-02-26 03:19:00,29.0,28.0,30.15,WSW,243,0.0,-999.0,95,-99.99,,,0.00,weatherlink.com 1.10,2013-02-26 08:19:00,
2013-02-26 03:34:00,29.2,28.0,30.16,WSW,243,0.0,-999.0,96,-99.99,,,0.00,weatherlink.com 1.10,2013-02-26 08:34:00,
2013-02-26 03:49:00,29.5,29.0,30.16,WSW,243,0.0,-999.0,96,-99.99,,,0.00,weatherlink.com 1.10,2013-02-26 08:49:00,
2013-02-26 04:04:00,30.1,29.0,30.16,WSW,243,0.0,-999.0,96,-99.99,,,0.00,weatherlink.com 1.10,2013-02-26 09:04:00,
2013-02-26 04:20:00,30.3,29.0,30.16,WSW,243,0.0,-999.0,96,-99.99,,,0.00,weatherlink.com 1.10,2013-02-26 09:20:00,
2013-02-26 04:34:00,30.4,29.0,30.17,WSW,243,0.0,-999.0,96,-99.99,,,0.00,weatherlink.com 1.10,2013-02-26 09:34:00,
2013-02-26 04:49:00,30.4,29.0,30.17,WSW,243,0.0,-999.0,96,-99.99,,,0.00,weatherlink.com 1.10,2013-02-26 09:49:00,
2013-02-26 05:04:00,30.3,29.0,30.18,WSW,243,0.0,-999.0,96,-99.99,,,0.00,weatherlink.com 1.10,2013-02-26 10:04:00,
2013-02-26 05:19:00,30.4,29.0,30.17,WSW,243,0.0,-999.0,96,-99.99,,,0.00,weatherlink.com 1.10,2013-02-26 10:19:00,
2013-02-26 05:34:00,30.4,29.0,30.17,WSW,243,0.0,-999.0,96,-99.99,,,0.00,weatherlink.com 1.10,2013-02-26 10:34:00,
2013-02-26 05:49:00,30.1,29.0,30.18,WSW,243,0.0,-999.0,96,-99.99,,,0.00,weatherlink.com 1.10,2013-02-26 10:49:00,
2013-02-26 06:04:00,30.3,29.0,30.18,WSW,243,0.0,-999.0,96,-99.99,,,0.00,weatherlink.com 1.10,2013-02-26 11:04:00,
2013-02-26 06:19:00,30.2,29.0,30.19,WSW,243,0.0,-999.0,96,-99.99,,,0.00,weatherlink.com 1.10,2013-02-26 11:19:00,
2013-02-26 06:34:00,30.3,29.0,30.19,WSW,243,0.0,-999.0,96,-99.99,,,0.00,weatherlink.com 1.10,2013-02-26 11:34:00,
2013-02-26 06:49:00,30.2,29.0,30.20,WSW,243,0.0,-999.0,96,-99.99,,,0.00,weatherlink.com 1.10,2013-02-26 11:49:00,
2013-02-26 07:04:00,30.3,29.0,30.20,WSW,243,0.0,-999.0,96,-99.99,,,0.00,weatherlink.com 1.10,2013-02-26 12:04:00,
2013-02-26 07:19:00,30.6,30.0,30.20,WSW,243,0.0,-999.0,96,-99.99,,,0.00,weatherlink.com 1.10,2013-02-26 12:19:00,
2013-02-26 07:34:00,31.0,30.0,30.20,WSW,243,0.0,-999.0,96,-99.99,,,0.00,weatherlink.com 1.10,2013-02-26 12:34:00,
2013-02-26 07:49:00,31.3,30.0,30.21,WSW,243,0.0,-999.0,96,-99.99,,,0.00,weatherlink.com 1.10,2013-02-26 12:49:00,
2013-02-26 08:04:00,31.8,31.0,30.21,WSW,243,0.0,-999.0,96,-99.99,,,0.00,weatherlink.com 1.10,2013-02-26 13:04:00,
2013-02-26 08:19:00,32.4,31.0,30.22,WSW,243,0.0,-999.0,96,-99.99,,,0.00,weatherlink.com 1.10,2013-02-26 13:19:00,
2013-02-26 08:34:00,33.3,32.0,30.23,WSW,243,0.0,-999.0,96,-99.99,,,0.00,weatherlink.com 1.10,2013-02-26 13:34:00,
2013-02-26 08:49:00,34.3,33.0,30.22,WSW,243,0.0,-999.0,96,-99.99,,,0.00,weatherlink.com 1.10,2013-02-26 13:49:00,
2013-02-26 09:04:00,34.8,34.0,30.22,WSW,243,0.0,-999.0,96,-99.99,,,0.00,weatherlink.com 1.10,2013-02-26 14:04:00,
2013-02-26 09:19:00,36.2,35.0,30.22,WSW,243,0.0,-999.0,95,-99.99,,,0.00,weatherlink.com 1.10,2013-02-26 14:19:00,
2013-02-26 09:34:00,37.7,36.0,30.22,WSW,243,0.0,-999.0,93,-99.99,,,0.00,weatherlink.com 1.10,2013-02-26 14:34:00,
2013-02-26 09:49:00,38.8,36.0,30.23,ENE,64,0.0,-999.0,89,-99.99,,,0.00,weatherlink.com 1.10,2013-02-26 14:49:00,
2013-02-26 10:04:00,39.2,35.0,30.23,SE,126,0.0,-999.0,84,-99.99,,,0.00,weatherlink.com 1.10,2013-02-26 15:04:00,
2013-02-26 10:19:00,40.0,35.0,30.23,East,94,0.0,-999.0,81,-99.99,,,0.00,weatherlink.com 1.10,2013-02-26 15:19:00,
2013-02-26 10:34:00,40.7,34.0,30.22,NE,55,2.0,-999.0,78,-99.99,,,0.00,weatherlink.com 1.10,2013-02-26 15:34:00,
2013-02-26 10:49:00,40.6,35.0,30.22,ESE,111,0.0,-999.0,79,-99.99,,,0.00,weatherlink.com 1.10,2013-02-26 15:49:00,
2013-02-26 11:04:00,41.3,35.0,30.22,SE,135,0.0,-999.0,78,-99.99,,,0.00,weatherlink.com 1.10,2013-02-26 16:04:00,
2013-02-26 11:19:00,41.1,35.0,30.22,East,85,0.0,-999.0,79,-99.99,,,0.00,weatherlink.com 1.10,2013-02-26 16:19:00,
2013-02-26 11:34:00,40.9,35.0,30.22,ENE,63,4.0,-999.0,78,-99.99,,,0.00,weatherlink.com 1.10,2013-02-26 16:34:00,
2013-02-26 11:49:00,40.9,35.0,30.21,ESE,123,2.0,-999.0,79,-99.99,,,0.00,weatherlink.com 1.10,2013-02-26 16:49:00,
2013-02-26 12:04:00,41.5,35.0,30.20,East,90,6.0,-999.0,77,-99.99,,,0.00,weatherlink.com 1.10,2013-02-26 17:04:00,
2013-02-26 12:19:00,41.4,34.0,30.20,East,101,1.0,-999.0,76,-99.99,,,0.00,weatherlink.com 1.10,2013-02-26 17:19:00,
2013-02-26 12:34:00,42.2,35.0,30.20,East,86,3.0,-999.0,75,-99.99,,,0.00,weatherlink.com 1.10,2013-02-26 17:34:00,
2013-02-26 12:49:00,41.7,35.0,30.20,WSW,242,4.0,-999.0,76,-99.99,,,0.00,weatherlink.com 1.10,2013-02-26 17:49:00,
2013-02-26 13:04:00,41.4,34.0,30.21,East,92,4.0,-999.0,74,-99.99,,,0.00,weatherlink.com 1.10,2013-02-26 18:04:00,
2013-02-26 13:19:00,40.9,35.0,30.21,ESE,107,0.0,-999.0,78,-99.99,,,0.00,weatherlink.com 1.10,2013-02-26 18:19:00,
2013-02-26 13:34:00,41.8,34.0,30.21,ENE,60,0.0,-999.0,74,-99.99,,,0.00,weatherlink.com 1.10,2013-02-26 18:34:00,
2013-02-26 13:49:00,41.3,34.0,30.21,NE,36,2.0,-999.0,75,-99.99,,,0.00,weatherlink.com 1.10,2013-02-26 18:49:00,
2013-02-26 14:04:00,41.4,34.0,30.21,SE,145,1.0,-999.0,74,-99.99,,,0.00,weatherlink.com 1.10,2013-02-26 19:04:00,
2013-02-26 14:19:00,41.4,33.0,30.20,ENE,60,0.0,-999.0,72,-99.99,,,0.00,weatherlink.com 1.10,2013-02-26 19:19:00,
2013-02-26 14:34:00,41.2,32.0,30.19,ESE,115,2.0,-999.0,71,-99.99,,,0.00,weatherlink.com 1.10,2013-02-26 19:34:00,
2013-02-26 14:49:00,41.1,34.0,30.19,SW,227,3.0,-999.0,75,-99.99,,,0.00,weatherlink.com 1.10,2013-02-26 19:49:00,
2013-02-26 15:04:00,41.0,34.0,30.19,East,88,0.0,-999.0,75,-99.99,,,0.00,weatherlink.com 1.10,2013-02-26 20:04:00,
2013-02-26 15:19:00,40.7,33.0,30.19,ESE,117,0.0,-999.0,75,-99.99,,,0.00,weatherlink.com 1.10,2013-02-26 20:19:00,
2013-02-26 15:34:00,40.6,33.0,30.18,South,184,0.0,-999.0,74,-99.99,,,0.00,weatherlink.com 1.10,2013-02-26 20:34:00,
2013-02-26 15:49:00,40.9,33.0,30.17,East,86,0.0,-999.0,73,-99.99,,,0.00,weatherlink.com 1.10,2013-02-26 20:49:00,
2013-02-26 16:04:00,40.7,33.0,30.17,SSE,153,0.0,-999.0,73,-99.99,,,0.00,weatherlink.com 1.10,2013-02-26 21:04:00,
2013-02-26 16:19:00,40.4,33.0,30.18,SSW,194,0.0,-999.0,75,-99.99,,,0.00,weatherlink.com 1.10,2013-02-26 21:19:00,
2013-02-26 16:34:00,39.6,33.0,30.18,ESE,123,0.0,-999.0,76,-99.99,,,0.00,weatherlink.com 1.10,2013-02-26 21:34:00,
2013-02-26 16:49:00,38.9,32.0,30.18,SW,234,0.0,-999.0,77,-99.99,,,0.00,weatherlink.com 1.10,2013-02-26 21:49:00,
2013-02-26 17:04:00,38.4,31.0,30.18,South,172,0.0,-999.0,75,-99.99,,,0.00,weatherlink.com 1.10,2013-02-26 22:04:00,
2013-02-26 17:19:00,37.7,31.0,30.18,South,172,0.0,-999.0,77,-99.99,,,0.00,weatherlink.com 1.10,2013-02-26 22:19:00,
2013-02-26 17:34:00,36.7,30.0,30.17,South,172,0.0,-999.0,78,-99.99,,,0.00,weatherlink.com 1.10,2013-02-26 22:34:00,
2013-02-26 17:49:00,35.9,29.0,30.16,South,172,0.0,-999.0,77,-99.99,,,0.00,weatherlink.com 1.10,2013-02-26 22:49:00,
2013-02-26 18:04:00,35.3,29.0,30.17,South,172,0.0,-999.0,79,-99.99,,,0.00,weatherlink.com 1.10,2013-02-26 23:04:00,
2013-02-26 18:19:00,35.0,30.0,30.18,South,172,0.0,-999.0,81,-99.99,,,0.00,weatherlink.com 1.10,2013-02-26 23:19:00,
2013-02-26 18:34:00,34.5,30.0,30.17,South,172,0.0,-999.0,83,-99.99,,,0.00,weatherlink.com 1.10,2013-02-26 23:34:00,
2013-02-26 18:49:00,33.7,29.0,30.17,South,172,0.0,-999.0,84,-99.99,,,0.00,weatherlink.com 1.10,2013-02-26 23:49:00,
2013-02-26 19:04:00,33.3,30.0,30.17,South,172,0.0,-999.0,86,-99.99,,,0.00,weatherlink.com 1.10,2013-02-27 00:04:00,
2013-02-26 19:19:00,33.1,30.0,30.17,South,172,0.0,-999.0,88,-99.99,,,0.00,weatherlink.com 1.10,2013-02-27 00:19:00,
2013-02-26 19:34:00,32.6,30.0,30.16,South,172,0.0,-999.0,88,-99.99,,,0.00,weatherlink.com 1.10,2013-02-27 00:34:00,
2013-02-26 19:49:00,32.1,29.0,30.16,South,172,0.0,-999.0,88,-99.99,,,0.00,weatherlink.com 1.10,2013-02-27 00:49:00,
2013-02-26 20:04:00,31.9,29.0,30.16,South,172,0.0,-999.0,89,-99.99,,,0.00,weatherlink.com 1.10,2013-02-27 01:04:00,
2013-02-26 20:19:00,31.7,29.0,30.16,South,172,0.0,-999.0,90,-99.99,,,0.00,weatherlink.com 1.10,2013-02-27 01:19:00,
2013-02-26 20:34:00,31.4,29.0,30.16,South,172,0.0,-999.0,90,-99.99,,,0.00,weatherlink.com 1.10,2013-02-27 01:34:00,
2013-02-26 20:49:00,31.4,29.0,30.16,South,172,0.0,-999.0,91,-99.99,,,0.00,weatherlink.com 1.10,2013-02-27 01:49:00,
2013-02-26 21:04:00,31.1,29.0,30.15,South,172,0.0,-999.0,90,-99.99,,,0.00,weatherlink.com 1.10,2013-02-27 02:04:00,
2013-02-26 21:19:00,30.9,29.0,30.14,South,172,0.0,-999.0,91,-99.99,,,0.00,weatherlink.com 1.10,2013-02-27 02:19:00,
2013-02-26 21:34:00,31.4,29.0,30.14,South,172,0.0,-999.0,91,-99.99,,,0.00,weatherlink.com 1.10,2013-02-27 02:34:00,
2013-02-26 21:49:00,32.2,30.0,30.13,NNW,335,0.0,-999.0,90,-99.99,,,0.00,weatherlink.com 1.10,2013-02-27 02:49:00,
2013-02-26 22:04:00,34.0,31.0,30.12,East,93,0.0,-999.0,87,-99.99,,,0.00,weatherlink.com 1.10,2013-02-27 03:04:00,
2013-02-26 22:19:00,35.3,31.0,30.12,East,92,0.0,-999.0,84,-99.99,,,0.00,weatherlink.com 1.10,2013-02-27 03:19:00,
2013-02-26 22:34:00,36.0,31.0,30.12,East,91,0.0,-999.0,82,-99.99,,,0.00,weatherlink.com 1.10,2013-02-27 03:34:00,
2013-02-26 22:49:00,36.7,31.0,30.10,ENE,66,4.0,-999.0,80,-99.99,,,0.00,weatherlink.com 1.10,2013-02-27 03:49:00,
2013-02-26 23:04:00,37.2,31.0,30.09,East,80,2.0,-999.0,79,-99.99,,,0.00,weatherlink.com 1.10,2013-02-27 04:04:00,
2013-02-26 23:19:00,37.4,31.0,30.08,ENE,59,2.0,-999.0,79,-99.99,,,0.00,weatherlink.com 1.10,2013-02-27 04:19:00,
2013-02-26 23:34:00,37.6,32.0,30.07,East,93,4.0,-999.0,79,-99.99,,,0.00,weatherlink.com 1.10,2013-02-27 04:34:00,
2013-02-26 23:49:00,37.9,32.0,30.08,East,79,1.0,-999.0,78,-99.99,,,0.00,weatherlink.com 1.10,2013-02-27 04:49:00,